Location: Wiesbaden
(50.0830°N, 8.2500°E)
Time: 20:34:15
(UTC+02:00)

ISS - Pass Details

Date: 25 April 2026
Orbit: 414 x 424 km, 51.6° (Epoch: 12 May)

Event Time Altitude Azimuth Distance (km) Brightness Sun altitude
Exits shadow 03:12:41 11° 108° (ESE) 1,425 -1.0 -22.5°
Drops below altitude 10° 03:13:01 10° 103° (ESE) 1,498 -0.8 -22.5°
Sets 03:15:49 0° 78° (ENE) 2,370 0.7 -22.3°
